Notices

What's New in latest Release from April 7th, 2021:

- Updated Glossary, including Speed of Maximum Gust, and Total Hourly Precipitation

- Updated national and regional climate services offices contacts and prices information

- Addition of station inventory lists for 1981-2010, 1971-2000, and 1961-1990 Normals.

If you haven't already, please take our survey and provide feedback about our website: https://eccc.sondage-survey.ca/f/LanguageSelection.aspx?s=442ca660-fcf1-47c0-95a9-59707d6fd709

Hourly Data Report for November 05, 2003

TORONTO CITY
ONTARIO

43°40'00.000" N
79°24'00.000" W
112.50 m
6158355
71508
XTO

Download Data

Hourly Data (November 2003)
Hourly Data Report for November 5, 2003
TIME
LST
Temp Definition
°C
Dew Point Definition
°C
Rel Hum Definition
%
Precip. Amount Definition
mm

Wind Dir Definition
10's deg

Wind Spd Definition
km/h
Visibility Definition
km
Stn Press Definition
kPa
Hmdx Definition


Wind Chill Definition


Weather Definition


00:00 5.9 5.9 100   LegendMM LegendMM LegendMM 99.91     LegendNANA
01:00 6.0 6.0 100   LegendMM LegendMM LegendMM 99.88     LegendNANA
02:00 6.3 6.3 100   LegendMM LegendMM LegendMM 99.95     LegendNANA
03:00 6.5 6.5 100   LegendMM LegendMM LegendMM 99.90     LegendNANA
04:00 6.6 6.6 100   LegendMM LegendMM LegendMM 99.80     LegendNANA
05:00 6.9 6.9 100   LegendMM LegendMM LegendMM 99.88     LegendNANA
06:00 7.0 7.0 100   LegendMM LegendMM LegendMM 99.88     LegendNANA
07:00 7.2 7.2 100   LegendMM LegendMM LegendMM 99.86     LegendNANA
08:00 7.7 7.7 100   LegendMM LegendMM LegendMM 99.84     LegendNANA
09:00 8.7 8.7 100   LegendMM LegendMM LegendMM 99.86     LegendNANA
10:00 9.2 9.2 100   LegendMM LegendMM LegendMM 99.88     LegendNANA
11:00 10.9 10.9 100   LegendMM LegendMM LegendMM 99.89     LegendNANA
12:00 11.9 11.8 99   LegendMM LegendMM LegendMM 99.92     LegendNANA
13:00 11.6 11.1 97   LegendMM LegendMM LegendMM 99.98     LegendNANA
14:00 11.9 10.6 92   LegendMM LegendMM LegendMM 100.05     LegendNANA
15:00 11.0 9.0 87   LegendMM LegendMM LegendMM 100.06     LegendNANA
16:00 10.7 7.6 81   LegendMM LegendMM LegendMM 100.22     LegendNANA
17:00 10.0 6.3 78   LegendMM LegendMM LegendMM 100.38     LegendNANA
18:00 9.0 5.0 76   LegendMM LegendMM LegendMM 100.50     LegendNANA
19:00 8.7 4.5 75   LegendMM LegendMM LegendMM 100.62     LegendNANA
20:00 7.9 3.2 72   LegendMM LegendMM LegendMM 100.73     LegendNANA
21:00 6.8 1.8 70   LegendMM LegendMM LegendMM 100.80     LegendNANA
22:00 5.9 1.3 72   LegendMM LegendMM LegendMM 100.84     LegendNANA
23:00 4.9 0.7 74   LegendMM LegendMM LegendMM 100.87     LegendNANA

Notes on Data Quality.

Legend

  • E = Estimated
  • M = Missing
  • NA = Not Available*
  • [empty] = Indicates an unobserved value
Date modified: